Home   Weather   Gera   Past weeks
Flag for Germany

Past Weather in Gera, Thuringia, Germany — Yesterday and Last 2 Weeks

Now
63 °F

Overcast.


Feels Like: 63 °F
Forecast: 77 / 51 °F
Wind: 6 mph from Northwest

Location: Altenburg Nobitz

Current Time: Jul 17, 2019 at 1:02:40 pm

Latest Report: Jul 17, 2019 at 12:20 pm


Visibility: N/A

Pressure: 30.01 "Hg

Humidity: 68%

Dew Point: 52 °F

Location of GeraLocation

Past Weather in Gera — Graph

°F

Gera Temperature Yesterday

Maximum temperature yesterday: 70 °F (at 7:20 pm)
Minimum temperature yesterday: 55 °F (at 3:50 am)
Average temperature yesterday: 60 °F

High & Low Weather Summary for the Past Weeks

 TemperatureHumidityPressure
High82 °F (Jul 6, 3:50 pm)100% (Jul 12, 12:50 am)30.27 "Hg (Jul 12, 12:50 am)
Low45 °F (Jul 4, 4:50 am)27% (Jul 4, 5:20 pm)29.71 "Hg (Jul 6, 7:50 pm)
Average62 °F65%30.01 "Hg
* Reported Jul 2 11:20 am — Jul 17 11:50 am, Gera. Weather by CustomWeather, © 2019

Note: Actual official high and low records may vary slightly from our data, if they occured in-between our weather recording intervals... More about our weather records

Advertising

Gera Weather History for the Previous 24 Hours

Scroll right to see more
 ConditionsComfort  
Time TempWeatherWind HumidityBarometerVisibility
11:50 am
Wed, Jul 17
63 °FMore clouds than sun.5 mph68%29.98 "HgN/A
11:20 am61 °FCloudy.5 mph72%29.98 "HgN/A
10:50 am61 °FMore clouds than sun.3 mph72%30.01 "HgN/A
10:20 am61 °FMore clouds than sun.2 mph77%30.01 "HgN/A
9:50 am61 °FMore clouds than sun.2 mph77%30.01 "HgN/A
9:20 am59 °FCloudy.3 mph82%30.01 "HgN/A
8:50 am59 °FMostly cloudy.5 mph82%30.01 "HgN/A
8:20 am59 °FOvercast.5 mph82%30.01 "HgN/A
7:50 am57 °FMostly cloudy.5 mph88%30.01 "Hg1 mi
7:20 am57 °FOvercast.3 mph88%30.01 "HgN/A
6:50 am57 °FOvercast.2 mph88%30.01 "HgN/A
6:20 am57 °FMostly cloudy.3 mph82%30.01 "HgN/A
5:50 am57 °FMostly cloudy.1 mph82%30.01 "HgN/A
5:20 am55 °FCool.N/A88%30.01 "HgN/A
4:50 am55 °FMostly cloudy.3 mph88%30.01 "HgN/A
4:20 am55 °FOvercast.2 mph88%30.01 "HgN/A
3:50 am55 °FOvercast.5 mph88%30.01 "HgN/A
3:20 am55 °FMostly cloudy.6 mph88%30.01 "HgN/A
2:50 am57 °FOvercast.7 mph82%30.01 "HgN/A
2:20 am57 °FOvercast.5 mph82%30.04 "HgN/A
1:50 am57 °FOvercast.5 mph82%30.04 "HgN/A
1:20 am57 °FOvercast.2 mph82%30.04 "HgN/A
12:50 am57 °FOvercast.5 mph82%30.04 "HgN/A
12:20 am57 °FOvercast.6 mph82%30.04 "HgN/A
11:50 pm
Tue, Jul 16
57 °FPassing clouds.6 mph82%30.04 "HgN/A
11:20 pm59 °FPassing clouds.7 mph77%30.01 "HgN/A
10:20 pm63 °FOvercast.8 mph68%30.01 "HgN/A
9:50 pm63 °FOvercast.6 mph68%30.01 "HgN/A
9:20 pm64 °FOvercast.10 mph64%30.01 "HgN/A
8:50 pm64 °FOvercast.9 mph68%30.01 "HgN/A
8:20 pm66 °FOvercast.12 mph60%30.01 "HgN/A
7:50 pm66 °FScattered clouds.8 mph60%30.01 "HgN/A
7:20 pm70 °FScattered clouds.8 mph53%29.98 "HgN/A
6:50 pm68 °FScattered clouds.12 mph56%29.98 "HgN/A
6:20 pm68 °FPassing clouds.7 mph53%30.01 "HgN/A
5:50 pm68 °FPassing clouds.7 mph53%30.01 "HgN/A
5:20 pm68 °FPassing clouds.8 mph56%30.01 "HgN/A
4:50 pm66 °FPassing clouds.9 mph56%30.01 "HgN/A
4:20 pm64 °FScattered clouds.7 mph64%30.01 "HgN/A
3:50 pm64 °FPartly sunny.8 mph60%30.01 "HgN/A
3:20 pm64 °FPartly sunny.10 mph60%30.04 "HgN/A
2:50 pm63 °FPartly sunny.12 mph64%30.04 "HgN/A
2:20 pm63 °FPartly sunny.10 mph64%30.04 "HgN/A
1:50 pm61 °FOvercast.9 mph68%30.04 "HgN/A
1:20 pm61 °FOvercast.7 mph68%30.04 "HgN/A
Weather by CustomWeather, © 2019

See weather overview